Location: Oshawa
(43.9000°N, 78.8670°W)
Time: 17:50:34
(UTC-04:00)

Daily predictions for brighter satellites

Satellite Brightness Start Highest point End
(mag) Time Altitude Azimuth Time Altitude Azimuth Time Altitude Azimuth
Lacrosse 5 2.5 19:55:35 10° S 20:00:09 34° SE 20:04:42 10° ENE
CZ-3B DEB 3.2 19:47:52 10° SW 20:00:13 64° SE 20:05:48 10° ENE
FengYun 1-2 T 4.4 19:54:53 10° SSE 20:00:20 59° ENE 20:05:52 10° N
FENGYUN 3A 3.7 19:55:05 10° SSE 20:00:25 63° ENE 20:05:45 10° N
HJ-1C 3.5 20:01:24 10° SSE 20:04:43 55° ENE 20:08:04 10° N
Cosmos 1937 Rocket 3.5 20:04:06 10° S 20:09:16 65° ESE 20:14:32 10° NNE
Cosmos 1818 4.4 20:04:55 10° NNW 20:09:51 33° NE 20:14:45 10° ESE
SL-27 R/B 2.7 20:08:08 10° N 20:11:38 51° ENE 20:15:09 10° SE
H-2A R/B 3.0 20:07:54 10° SSE 20:11:40 49° ENE 20:15:29 10° N
Meteor 1-24 Rocket 3.7 20:06:41 10° N 20:12:09 67° ENE 20:17:45 10° SSE
Cosmos 1953 3.7 20:10:34 10° SE 20:13:25 19° E 20:16:16 10° NE
Resurs 1-3 3.9 20:09:51 10° SE 20:14:03 47° ENE 20:18:16 10° N
FREGAT/IRIS 3.5 20:12:02 10° S 20:15:02 53° W 20:18:04 10° NNW
Cosmos 1707 3.5 20:11:27 10° NNW 20:15:18 58° W 20:19:07 10° S
SeaSat 1 2.7 20:11:14 10° SSE 20:16:09 75° WSW 20:21:07 10° NNW
Meteor 1-4 Rocket 4.0 20:14:08 10° SE 20:16:21 16° E 20:18:34 10° NE
COSMOS 2487 4.4 20:16:44 10° NNE 20:18:45 14° ENE 20:20:12 12° E
Cosmos 1544 4.1 20:17:14 10° SSE 20:20:16 25° E 20:23:18 10° NE
Cosmos 2298 Rocket 4.2 20:16:25 10° SSW 20:21:43 81° WNW 20:27:05 10° NNE
Cosmos 2082 Rocket 3.2 20:17:00 10° N 20:21:57 29° NE 20:26:10 13° ESE
Meteor 2-5 Rocket 4.4 20:16:50 10° NNW 20:22:28 62° W 20:28:11 10° S
Lacrosse 5 rocket 3.1 20:29:44 10° NNW 20:32:41 19° NNE 20:35:09 12° ENE
Cosmos 1766 3.1 20:30:08 10° S 20:34:00 81° E 20:37:55 10° N
Cosmos 1934 Rocket 3.9 20:29:45 10° S 20:35:54 87° E 20:42:00 10° N
Okean 3 Rocket 3.6 20:33:42 10° N 20:38:03 61° E 20:42:25 10° SSE
Tiangong 1 2.2 20:35:54 10° W 20:38:34 31° SSW 20:40:10 18° SSE
Cosmos 1271 Rocket 4.5 20:39:42 16° ENE 20:39:42 16° ENE 20:41:38 10° NE
RESURS DK-1 2.6 20:36:59 10° NNW 20:41:07 72° WSW 20:45:13 10° SSE
Cosmos 1844 4.2 20:39:44 10° SW 20:45:27 66° WNW 20:51:16 10° NNE
Abrixas 2.4 20:43:01 10° WNW 20:45:51 63° NNE 20:46:54 33° E
Cosmos 1867 4.3 20:41:59 10° S 20:46:42 31° ESE 20:51:26 10° NE
USA 186 0.7 20:50:05 43° SSE 20:50:39 74° E 20:52:53 10° N
Timation 1 Rocket 4.5 20:48:14 10° S 20:53:59 51° ESE 20:59:48 10° NE
Meteor 1-21 Rocket 4.3 20:49:39 10° N 20:55:25 60° ENE 21:00:51 12° SSE
USA 215 3.4 20:53:15 10° ENE 20:59:33 48° SE 21:05:47 10° SSW
Cosmos 1674 3.0 20:58:24 10° N 21:02:02 44° ENE 21:02:55 37° ESE
GP-B 3.1 20:58:25 12° SSE 21:02:26 58° E 21:06:48 10° N
Spot 2 Rocket 4.3 20:57:46 10° S 21:02:44 54° W 21:07:46 10° NNW
CZ-2D R/B 3.9 20:59:12 10° S 21:03:00 55° W 21:06:50 10° NNW
Cosmos 2344 3.8 20:55:32 10° SW 21:03:13 79° NW 21:12:04 10° NE
Cosmos 158 Rocket 4.2 20:59:35 10° N 21:04:33 50° ENE 21:06:53 29° SE
Resurs 01 Rocket 2.9 21:00:53 10° S 21:05:04 42° W 21:09:17 10° NNW
CZ-4B DEB 4.4 21:04:53 25° SSE 21:06:54 84° ENE 21:10:30 10° N
Cosmos 1805 3.3 21:05:18 10° SSW 21:09:11 76° W 21:13:06 10° N
Cosmos 1076 Rocket 3.4 21:05:10 10° N 21:09:26 86° ENE 21:12:27 19° S
Cosmos 1766 Rocket 3.5 21:09:28 10° N 21:13:57 69° E 21:16:04 30° SSE
H-2A R/B 3.9 21:14:41 15° ENE 21:14:41 15° ENE 21:17:31 10° NNE
Cosmos 1605 Rocket 4.4 21:09:26 10° SSW 21:15:40 68° W 21:22:01 10° N
Cosmos 2100 Rocket 4.1 21:09:39 10° SSE 21:15:46 55° E 21:21:57 10° NNE
Helios 1B rocket 2.6 21:16:23 10° N 21:20:31 75° WNW 21:24:37 10° SSW
Envisat 2.9 21:17:16 22° SSE 21:20:38 85° ENE 21:25:45 10° NNW
Fregat R/B Cluster 11 4.1 21:15:58 10° SSW 21:21:47 89° ESE 21:25:09 10° NE
Cosmos 1340 Rocket 3.0 21:18:16 10° N 21:22:08 49° ENE 21:22:08 49° ENE
YAOGAN 6 3.5 21:22:58 35° NE 21:22:58 35° NE 21:25:47 10° N
Cosmos 1470 2.8 21:23:17 55° E 21:23:17 55° E 21:27:01 10° NNE
CZ-4B DEB 3.1 21:22:45 49° SSW 21:23:19 61° W 21:26:25 10° NNW
Helios 1A 3.9 21:23:52 12° S 21:27:32 47° W 21:31:35 10° NNW
Cosmos 1125 Rocket 3.4 21:23:05 10° SSW 21:28:16 89° WNW 21:33:32 10° NNE
Cosmos 1048 Rocket 3.9 21:26:01 10° NNW 21:31:10 81° WSW 21:33:24 35° S
USA 267 3.8 21:30:04 29° E 21:33:00 46° NNE 21:39:12 10° NW
Lacrosse 4 Rocket 4.3 21:30:46 10° W 21:33:22 16° NW 21:35:59 10° N
Cosmos 1802 Rocket 3.9 21:31:04 27° SSE 21:34:25 59° E 21:40:28 10° NNE
Cosmos-2242 2.8 21:33:21 46° S 21:34:33 83° E 21:38:50 10° N
Cosmos 1833 Rocket 2.6 21:29:13 10° NNW 21:34:53 88° ENE 21:36:55 42° SSE
Cosmos 2278 Rocket 3.3 21:32:14 10° SW 21:37:40 45° WNW 21:43:07 10° NNE
Cosmos 1733 3.5 21:43:27 60° N 21:43:27 60° N 21:46:41 10° N
Lacrosse 5 2.7 21:38:03 10° WSW 21:43:00 50° NW 21:47:18 13° NE
Cosmos 2061 Rocket 3.9 21:38:33 13° S 21:44:14 77° E 21:50:41 10° N
ERS-1 Rocket 2.8 21:43:28 59° SE 21:44:22 78° ENE 21:49:26 10° N
Cosmos 1743 Rocket 3.6 21:41:22 10° N 21:45:27 67° NE 21:45:27 67° NE
MetOp-B 4.2 21:45:45 53° E 21:45:58 53° ENE 21:51:11 10° N
SPOT 5 3.5 21:47:10 46° ENE 21:47:10 46° ENE 21:52:08 10° N
Timation 2 Rocket 3.9 21:41:27 10° NNW 21:47:49 82° WSW 21:49:54 44° SSE
H-2A R/B 4.4 21:50:04 12° NNE 21:50:04 12° NNE 21:50:33 10° NNE
Cosmos 1500 Rocket 4.3 21:44:03 10° N 21:47:10 41° NNE 21:47:10 41° NNE
Cosmos 1939 Rocket 3.6 21:48:08 42° SW 21:49:07 53° W 21:53:13 10° NNW
Cosmos 1953 4.0 21:45:52 10° SW 21:49:35 34° WNW 21:53:20 10° N
Cosmos 2297 3.9 21:45:18 10° SSW 21:51:00 73° WNW 21:56:46 10° NNE
Meteor 1-11 4.4 21:46:18 10° N 21:51:35 52° ENE 21:51:35 52° ENE
Cosmos 1818 4.4 21:48:24 10° NW 21:53:34 45° WSW 21:55:28 32° SSW
COSMOS 2487 3.7 21:51:04 10° NNW 21:54:10 40° W 21:54:10 40° W
ATLAS 5 CENTAUR R/B 4.0 21:52:50 10° SSW 22:05:02 - NE 21:53:19 13° SSW
SPOT 1/Viking Rocket 4.4 21:58:41 36° NE 21:58:41 36° NE 22:02:34 10° N
Cosmos 2251 Rocket 3.7 21:54:30 10° NNW 21:59:22 56° NE 21:59:22 56° NE
Cosmos 2082 Rocket 3.0 22:00:49 10° NW 22:06:15 47° WSW 22:08:04 35° SSW
Meteor 1-16 Rocket 4.1 22:11:54 81° E 22:11:54 81° E 22:17:47 10° NNE
Lacrosse 5 rocket 2.8 22:08:34 10° NW 22:10:52 33° NW 22:10:52 33° NW
CZ-3B DEB 3.4 22:05:24 10° W 22:12:54 36° NNW 22:15:02 24° NNE
Cosmos 1459 Rocket 4.4 22:06:58 10° SSW 22:13:09 60° W 22:19:18 10° N
Cosmos 1271 Rocket 4.2 22:14:48 37° WNW 22:14:48 37° WNW 22:18:32 10° N
Terra 3.9 22:17:20 18° NNE 22:17:20 18° NNE 22:18:55 10° N
Cosmos 2173 Rocket 4.5 22:10:26 10° SSW 22:16:29 58° W 22:22:40 10° N
Cosmos 1864 Rocket 4.4 22:20:55 76° ENE 22:20:55 76° ENE 22:26:56 10° N
ARGOS 3.4 22:29:20 62° NNW 22:29:20 62° NNW 22:33:47 10° NNW
USA 215 3.7 22:36:14 10° NE 22:42:39 59° NNW 22:49:01 10° WSW
H-2A R/B 3.2 22:55:19 41° NNW 22:55:19 41° NNW 22:58:40 10° NNW
Cosmos 1725 Rocket 4.4 22:54:40 59° WNW 22:54:40 59° WNW 23:00:39 10° N
CZ-3 Stage 3 4.5 22:52:25 10° W 23:03:53 25° SW 23:03:53 25° SW
BREEZE-M DEB (TANK) 4.4 23:02:09 10° WSW 23:07:31 87° NNW 23:33:02 10° E
USA 267 3.8 23:17:25 52° WNW 23:17:25 52° WNW 23:22:22 10° NW
Lacrosse 5 4.2 23:23:12 10° WNW 23:26:34 20° NNW 23:26:34 20° NNW
